Time,TemperatureF,DewpointF,PressureIn,WindDirection,WindDirectionDegrees,WindSpeedMPH,WindSpeedGustMPH,Humidity,HourlyPrecipIn,Conditions,Clouds,dailyrainin,SolarRadiationWatts/m^2,SoftwareType,DateUTC
2013-06-05 00:02:00,61.0,33.0,-100.00,NNE,19,7.0,12.0,35,0.00,,,0.00,0.000000,,2013-06-05 07:02:00,
2013-06-05 00:12:00,61.0,33.0,-100.00,NNE,19,7.0,12.0,35,0.00,,,0.00,0.000000,,2013-06-05 07:12:00,
2013-06-05 00:22:00,61.0,33.0,-100.00,NNE,19,7.0,12.0,35,0.00,,,0.00,0.000000,,2013-06-05 07:22:00,
2013-06-05 00:32:00,61.0,33.0,-100.00,NNE,19,7.0,12.0,35,0.00,,,0.00,0.000000,,2013-06-05 07:32:00,
2013-06-05 00:52:00,61.0,35.0,-100.00,ENE,69,4.0,9.0,37,0.00,,,0.00,0.000000,,2013-06-05 07:52:00,
2013-06-05 01:02:00,61.0,35.0,-100.00,ENE,69,4.0,9.0,37,0.00,,,0.00,0.000000,,2013-06-05 08:02:00,
2013-06-05 01:12:00,61.0,35.0,-100.00,ENE,69,4.0,9.0,37,0.00,,,0.00,0.000000,,2013-06-05 08:12:00,
2013-06-05 01:22:00,61.0,35.0,-100.00,ENE,69,4.0,9.0,37,0.00,,,0.00,0.000000,,2013-06-05 08:22:00,
2013-06-05 01:32:00,61.0,35.0,-100.00,ENE,69,4.0,9.0,37,0.00,,,0.00,0.000000,,2013-06-05 08:32:00,
2013-06-05 01:52:00,60.0,32.0,-100.00,NNE,20,6.0,9.0,35,0.00,,,0.00,0.000000,,2013-06-05 08:52:00,
2013-06-05 02:02:00,60.0,32.0,-100.00,NNE,20,6.0,9.0,35,0.00,,,0.00,0.000000,,2013-06-05 09:02:00,
2013-06-05 02:12:00,60.0,32.0,-100.00,NNE,20,6.0,9.0,35,0.00,,,0.00,0.000000,,2013-06-05 09:12:00,
2013-06-05 02:22:00,60.0,32.0,-100.00,NNE,20,6.0,9.0,35,0.00,,,0.00,0.000000,,2013-06-05 09:22:00,
2013-06-05 02:32:00,60.0,32.0,-100.00,NNE,20,6.0,9.0,35,0.00,,,0.00,0.000000,,2013-06-05 09:32:00,
2013-06-05 02:53:00,59.0,33.0,-100.00,North,353,3.0,8.0,37,0.00,,,0.00,0.000000,,2013-06-05 09:53:00,
2013-06-05 03:03:00,59.0,33.0,-100.00,North,353,3.0,8.0,37,0.00,,,0.00,0.000000,,2013-06-05 10:03:00,
2013-06-05 03:12:00,59.0,33.0,-100.00,North,353,3.0,8.0,37,0.00,,,0.00,0.000000,,2013-06-05 10:12:00,
2013-06-05 03:22:00,59.0,33.0,-100.00,North,353,3.0,8.0,37,0.00,,,0.00,0.000000,,2013-06-05 10:22:00,
2013-06-05 03:33:00,59.0,33.0,-100.00,North,353,3.0,8.0,37,0.00,,,0.00,0.000000,,2013-06-05 10:33:00,
2013-06-05 03:53:00,58.0,32.0,-100.00,NNE,24,2.0,4.0,37,0.00,,,0.00,0.000000,,2013-06-05 10:53:00,
2013-06-05 04:02:00,58.0,32.0,-100.00,NNE,24,2.0,4.0,37,0.00,,,0.00,0.000000,,2013-06-05 11:02:00,
2013-06-05 04:12:00,58.0,32.0,-100.00,NNE,24,2.0,4.0,37,0.00,,,0.00,0.000000,,2013-06-05 11:12:00,
2013-06-05 04:22:00,58.0,32.0,-100.00,NNE,24,2.0,4.0,37,0.00,,,0.00,0.000000,,2013-06-05 11:22:00,
2013-06-05 04:32:00,58.0,32.0,-100.00,NNE,24,2.0,4.0,37,0.00,,,0.00,0.000000,,2013-06-05 11:32:00,
2013-06-05 04:52:00,59.0,33.0,-100.00,West,261,1.0,3.0,38,0.00,,,0.00,0.000000,,2013-06-05 11:52:00,
2013-06-05 05:02:00,59.0,33.0,-100.00,West,261,1.0,3.0,38,0.00,,,0.00,0.000000,,2013-06-05 12:02:00,
2013-06-05 05:12:00,59.0,33.0,-100.00,West,261,1.0,3.0,38,0.00,,,0.00,0.000000,,2013-06-05 12:12:00,
2013-06-05 05:22:00,59.0,33.0,-100.00,West,261,1.0,3.0,38,0.00,,,0.00,0.000000,,2013-06-05 12:22:00,
2013-06-05 05:32:00,59.0,33.0,-100.00,West,261,1.0,3.0,38,0.00,,,0.00,0.000000,,2013-06-05 12:32:00,
2013-06-05 05:52:00,59.0,32.0,-100.00,NW,306,2.0,3.0,36,0.00,,,0.00,2.000000,,2013-06-05 12:52:00,
2013-06-05 06:02:00,59.0,32.0,-100.00,NW,306,2.0,3.0,36,0.00,,,0.00,2.000000,,2013-06-05 13:02:00,
2013-06-05 06:12:00,59.0,32.0,-100.00,NW,306,2.0,3.0,36,0.00,,,0.00,2.000000,,2013-06-05 13:12:00,
2013-06-05 06:52:00,62.0,35.0,-100.00,WNW,289,3.0,4.0,37,-99.99,,,0.00,54.000000,,2013-06-05 13:52:00,
2013-06-05 07:02:00,62.0,35.0,-100.00,WNW,289,3.0,4.0,37,-99.99,,,0.00,54.000000,,2013-06-05 14:02:00,
2013-06-05 07:52:00,64.0,38.0,-100.00,South,191,3.0,4.0,38,-99.99,,,0.00,217.000000,,2013-06-05 14:52:00,
2013-06-05 08:02:00,64.0,38.0,-100.00,South,191,3.0,4.0,38,-99.99,,,0.00,217.000000,,2013-06-05 15:02:00,
2013-06-05 08:22:00,64.0,38.0,-100.00,South,191,3.0,4.0,38,-99.99,,,0.00,217.000000,,2013-06-05 15:22:00,
2013-06-05 08:33:00,64.0,38.0,-100.00,South,191,3.0,4.0,38,-99.99,,,0.00,217.000000,,2013-06-05 15:33:00,
2013-06-05 08:53:00,66.0,38.0,-100.00,SSE,162,3.0,5.0,36,0.00,,,0.00,415.000000,,2013-06-05 15:53:00,
2013-06-05 09:03:00,66.0,38.0,-100.00,SSE,162,3.0,5.0,36,0.00,,,0.00,415.000000,,2013-06-05 16:03:00,
2013-06-05 09:12:00,66.0,38.0,-100.00,SSE,162,3.0,5.0,36,0.00,,,0.00,415.000000,,2013-06-05 16:12:00,
2013-06-05 09:22:00,66.0,38.0,-100.00,SSE,162,3.0,5.0,36,0.00,,,0.00,415.000000,,2013-06-05 16:22:00,
2013-06-05 09:32:00,66.0,38.0,-100.00,SSE,162,3.0,5.0,36,0.00,,,0.00,415.000000,,2013-06-05 16:32:00,
2013-06-05 09:54:00,69.0,41.0,-100.00,South,182,3.0,5.0,36,0.00,,,0.00,588.000000,,2013-06-05 16:54:00,
2013-06-05 10:02:00,69.0,41.0,-100.00,South,182,3.0,5.0,36,0.00,,,0.00,588.000000,,2013-06-05 17:02:00,
2013-06-05 10:12:00,69.0,41.0,-100.00,South,182,3.0,5.0,36,0.00,,,0.00,588.000000,,2013-06-05 17:12:00,
2013-06-05 10:22:00,69.0,41.0,-100.00,South,182,3.0,5.0,36,0.00,,,0.00,588.000000,,2013-06-05 17:22:00,
2013-06-05 10:32:00,69.0,41.0,-100.00,South,182,3.0,5.0,36,0.00,,,0.00,588.000000,,2013-06-05 17:32:00,
2013-06-05 10:52:00,70.0,39.0,-100.00,South,172,5.0,8.0,32,0.00,,,0.00,738.000000,,2013-06-05 17:52:00,
2013-06-05 11:02:00,70.0,39.0,-100.00,South,172,5.0,8.0,32,0.00,,,0.00,738.000000,,2013-06-05 18:02:00,
2013-06-05 11:12:00,70.0,39.0,-100.00,South,172,5.0,8.0,32,0.00,,,0.00,738.000000,,2013-06-05 18:12:00,
2013-06-05 11:22:00,70.0,39.0,-100.00,South,172,5.0,8.0,32,0.00,,,0.00,738.000000,,2013-06-05 18:22:00,
2013-06-05 11:32:00,70.0,39.0,-100.00,South,172,5.0,8.0,32,0.00,,,0.00,738.000000,,2013-06-05 18:32:00,
2013-06-05 11:52:00,73.0,40.0,-100.00,South,176,5.0,9.0,30,0.00,,,0.00,854.000000,,2013-06-05 18:52:00,
2013-06-05 12:02:00,73.0,40.0,-100.00,South,176,5.0,9.0,30,0.00,,,0.00,854.000000,,2013-06-05 19:02:00,
2013-06-05 12:12:00,73.0,40.0,-100.00,South,176,5.0,9.0,30,0.00,,,0.00,854.000000,,2013-06-05 19:12:00,
2013-06-05 12:23:00,73.0,40.0,-100.00,South,176,5.0,9.0,30,0.00,,,0.00,854.000000,,2013-06-05 19:23:00,
2013-06-05 12:32:00,73.0,40.0,-100.00,South,176,5.0,9.0,30,0.00,,,0.00,854.000000,,2013-06-05 19:32:00,
2013-06-05 12:53:00,75.0,40.0,-100.00,SW,227,5.0,9.0,28,0.00,,,0.00,923.000000,,2013-06-05 19:53:00,
2013-06-05 13:02:00,75.0,40.0,-100.00,SW,227,5.0,9.0,28,0.00,,,0.00,923.000000,,2013-06-05 20:02:00,
2013-06-05 13:12:00,75.0,40.0,-100.00,SW,227,5.0,9.0,28,0.00,,,0.00,923.000000,,2013-06-05 20:12:00,
2013-06-05 13:22:00,75.0,40.0,-100.00,SW,227,5.0,9.0,28,0.00,,,0.00,923.000000,,2013-06-05 20:22:00,
2013-06-05 13:32:00,75.0,40.0,-100.00,SW,227,5.0,9.0,28,0.00,,,0.00,923.000000,,2013-06-05 20:32:00,
2013-06-05 13:52:00,78.0,40.0,-100.00,SW,224,4.0,12.0,26,0.00,,,0.00,940.000000,,2013-06-05 20:52:00,
2013-06-05 14:02:00,78.0,40.0,-100.00,SW,224,4.0,12.0,26,0.00,,,0.00,940.000000,,2013-06-05 21:02:00,
2013-06-05 14:12:00,78.0,40.0,-100.00,SW,224,4.0,12.0,26,0.00,,,0.00,940.000000,,2013-06-05 21:12:00,
2013-06-05 14:22:00,78.0,40.0,-100.00,SW,224,4.0,12.0,26,0.00,,,0.00,940.000000,,2013-06-05 21:22:00,
2013-06-05 14:33:00,78.0,40.0,-100.00,SW,224,4.0,12.0,26,0.00,,,0.00,940.000000,,2013-06-05 21:33:00,
2013-06-05 14:53:00,80.0,40.0,-100.00,SE,137,6.0,12.0,24,0.00,,,0.00,913.000000,,2013-06-05 21:53:00,
2013-06-05 15:02:00,80.0,40.0,-100.00,SE,137,6.0,12.0,24,0.00,,,0.00,913.000000,,2013-06-05 22:02:00,
2013-06-05 15:12:00,80.0,40.0,-100.00,SE,137,6.0,12.0,24,0.00,,,0.00,913.000000,,2013-06-05 22:12:00,
2013-06-05 15:22:00,80.0,40.0,-100.00,SE,137,6.0,12.0,24,0.00,,,0.00,913.000000,,2013-06-05 22:22:00,
2013-06-05 15:32:00,80.0,40.0,-100.00,SE,137,6.0,12.0,24,0.00,,,0.00,913.000000,,2013-06-05 22:32:00,
2013-06-05 15:52:00,79.0,40.0,-100.00,NNE,30,4.0,12.0,25,0.00,,,0.00,744.000000,,2013-06-05 22:52:00,
2013-06-05 16:02:00,79.0,40.0,-100.00,NNE,30,4.0,12.0,25,0.00,,,0.00,744.000000,,2013-06-05 23:02:00,
2013-06-05 16:12:00,79.0,40.0,-100.00,NNE,30,4.0,12.0,25,0.00,,,0.00,744.000000,,2013-06-05 23:12:00,
2013-06-05 16:22:00,79.0,40.0,-100.00,NNE,30,4.0,12.0,25,0.00,,,0.00,744.000000,,2013-06-05 23:22:00,
2013-06-05 16:32:00,79.0,40.0,-100.00,NNE,30,4.0,12.0,25,0.00,,,0.00,744.000000,,2013-06-05 23:32:00,
2013-06-05 16:53:00,80.0,39.0,-100.00,SE,124,5.0,12.0,23,0.00,,,0.00,720.000000,,2013-06-05 23:53:00,
2013-06-05 17:02:00,80.0,39.0,-100.00,SE,124,5.0,12.0,23,0.00,,,0.00,720.000000,,2013-06-06 00:02:00,
2013-06-05 17:12:00,80.0,39.0,-100.00,SE,124,5.0,12.0,23,0.00,,,0.00,720.000000,,2013-06-06 00:12:00,
2013-06-05 17:22:00,80.0,39.0,-100.00,SE,124,5.0,12.0,23,0.00,,,0.00,720.000000,,2013-06-06 00:22:00,
2013-06-05 17:32:00,80.0,39.0,-100.00,SE,124,5.0,12.0,23,0.00,,,0.00,720.000000,,2013-06-06 00:32:00,
2013-06-05 17:52:00,79.0,41.0,-100.00,NW,321,7.0,12.0,26,0.00,,,0.00,557.000000,,2013-06-06 00:52:00,
2013-06-05 18:02:00,79.0,41.0,-100.00,NW,321,7.0,12.0,26,0.00,,,0.00,557.000000,,2013-06-06 01:02:00,
2013-06-05 18:12:00,79.0,41.0,-100.00,NW,321,7.0,12.0,26,0.00,,,0.00,557.000000,,2013-06-06 01:12:00,
2013-06-05 18:22:00,79.0,41.0,-100.00,NW,321,7.0,12.0,26,0.00,,,0.00,557.000000,,2013-06-06 01:22:00,
2013-06-05 18:32:00,79.0,41.0,-100.00,NW,321,7.0,12.0,26,0.00,,,0.00,557.000000,,2013-06-06 01:32:00,
2013-06-05 18:53:00,78.0,46.0,-100.00,North,349,5.0,16.0,32,0.00,,,0.00,405.000000,,2013-06-06 01:53:00,
2013-06-05 19:02:00,78.0,46.0,-100.00,North,349,5.0,16.0,32,0.00,,,0.00,405.000000,,2013-06-06 02:02:00,
2013-06-05 19:12:00,78.0,46.0,-100.00,North,349,5.0,16.0,32,0.00,,,0.00,405.000000,,2013-06-06 02:12:00,
2013-06-05 19:22:00,78.0,46.0,-100.00,North,349,5.0,16.0,32,0.00,,,0.00,405.000000,,2013-06-06 02:22:00,
2013-06-05 19:32:00,78.0,46.0,-100.00,North,349,5.0,16.0,32,0.00,,,0.00,405.000000,,2013-06-06 02:32:00,
2013-06-05 20:02:00,73.0,43.0,-100.00,North,358,6.0,15.0,34,0.00,,,0.00,216.000000,,2013-06-06 03:02:00,
2013-06-05 20:12:00,73.0,43.0,-100.00,North,358,6.0,15.0,34,0.00,,,0.00,216.000000,,2013-06-06 03:12:00,
2013-06-05 20:22:00,73.0,43.0,-100.00,North,358,6.0,15.0,34,0.00,,,0.00,216.000000,,2013-06-06 03:22:00,
2013-06-05 20:33:00,73.0,43.0,-100.00,North,358,6.0,15.0,34,0.00,,,0.00,216.000000,,2013-06-06 03:33:00,
2013-06-05 20:52:00,67.0,41.0,-100.00,NNW,346,7.0,16.0,38,0.00,,,0.00,59.000000,,2013-06-06 03:52:00,
2013-06-05 21:03:00,67.0,41.0,-100.00,NNW,346,7.0,16.0,38,0.00,,,0.00,59.000000,,2013-06-06 04:03:00,
2013-06-05 21:13:00,67.0,41.0,-100.00,NNW,346,7.0,16.0,38,0.00,,,0.00,59.000000,,2013-06-06 04:13:00,
2013-06-05 21:23:00,67.0,41.0,-100.00,NNW,346,7.0,16.0,38,0.00,,,0.00,59.000000,,2013-06-06 04:23:00,
2013-06-05 21:33:00,67.0,41.0,-100.00,NNW,346,7.0,16.0,38,0.00,,,0.00,59.000000,,2013-06-06 04:33:00,
2013-06-05 21:53:00,64.0,39.0,-100.00,NNW,327,10.0,16.0,39,0.00,,,0.00,1.000000,,2013-06-06 04:53:00,
2013-06-05 22:02:00,64.0,39.0,-100.00,NNW,327,10.0,16.0,39,0.00,,,0.00,1.000000,,2013-06-06 05:02:00,
2013-06-05 22:12:00,64.0,39.0,-100.00,NNW,327,10.0,16.0,39,0.00,,,0.00,1.000000,,2013-06-06 05:12:00,
2013-06-05 22:22:00,64.0,39.0,-100.00,NNW,327,10.0,16.0,39,0.00,,,0.00,1.000000,,2013-06-06 05:22:00,
2013-06-05 22:32:00,64.0,39.0,-100.00,NNW,327,10.0,16.0,39,0.00,,,0.00,1.000000,,2013-06-06 05:32:00,
2013-06-05 22:52:00,61.0,40.0,-100.00,NNW,327,9.0,15.0,45,0.00,,,0.00,0.000000,,2013-06-06 05:52:00,
2013-06-05 23:02:00,61.0,40.0,-100.00,NNW,327,9.0,15.0,45,0.00,,,0.00,0.000000,,2013-06-06 06:02:00,
2013-06-05 23:12:00,61.0,40.0,-100.00,NNW,327,9.0,15.0,45,0.00,,,0.00,0.000000,,2013-06-06 06:12:00,
2013-06-05 23:22:00,61.0,40.0,-100.00,NNW,327,9.0,15.0,45,0.00,,,0.00,0.000000,,2013-06-06 06:22:00,
2013-06-05 23:32:00,61.0,40.0,-100.00,NNW,327,9.0,15.0,45,0.00,,,0.00,0.000000,,2013-06-06 06:32:00,
2013-06-05 23:52:00,61.0,40.0,-100.00,NW,323,9.0,16.0,46,0.00,,,0.00,0.000000,,2013-06-06 06:52:00,